| time (UTC) | temp F | wind direction | speed knots | gust knots | rain 1hr in | rain 24hr in | rain mn in | humidity % | barometer mb |
| 20260508200535 | 65 | 40 | 1.7 | 7.0 | 0.00 | 0.00 | 0.00 | 51 | 1011.6 |
| 20260508200058 | 66 | 60 | 1.7 | 7.0 | 0.00 | 0.00 | 0.00 | 51 | 1011.5 |
| 20260508195535 | 66 | 92 | 1.7 | 7.0 | 0.00 | 0.00 | 0.00 | 48 | 1011.5 |
| 20260508195035 | 67 | 56 | 1.7 | 5.2 | 0.00 | 0.00 | 0.00 | 48 | 1011.7 |
| 20260508194556 | 68 | 31 | 0.9 | 5.2 | 0.00 | 0.00 | 0.00 | 49 | 1011.6 |
| 20260508194035 | 68 | 71 | 0.9 | 5.2 | 0.00 | 0.00 | 0.00 | 49 | 1011.4 |
| 20260508193535 | 67 | 50 | 1.7 | 9.6 | 0.00 | 0.00 | 0.00 | 48 | 1011.5 |
| 20260508193053 | 66 | 53 | 2.6 | 12.2 | 0.00 | 0.00 | 0.00 | 46 | 1011.8 |
| 20260508192535 | 66 | 83 | 3.5 | 12.2 | 0.00 | 0.00 | 0.00 | 49 | 1012.0 |
| 20260508192037 | 66 | 40 | 3.5 | 13.0 | 0.00 | 0.00 | 0.00 | 48 | 1011.8 |
| 20260508191556 | 66 | 88 | 3.5 | 13.0 | 0.00 | 0.00 | 0.00 | 48 | 1012.1 |
| 20260508191035 | 67 | 33 | 4.3 | 13.0 | 0.00 | 0.00 | 0.00 | 50 | 1012.1 |
| 20260508190537 | 67 | 57 | 4.3 | 10.4 | 0.00 | 0.00 | 0.00 | 50 | 1012.2 |
| 20260508190054 | 67 | 49 | 3.5 | 10.4 | 0.00 | 0.00 | 0.00 | 49 | 1012.3 |
| 20260508185535 | 66 | 23 | 3.5 | 9.6 | 0.00 | 0.00 | 0.00 | 51 | 1012.4 |
| 20260508185036 | 66 | 108 | 4.3 | 10.4 | 0.00 | 0.00 | 0.00 | 52 | 1012.5 |
| 20260508184555 | 66 | 316 | 4.3 | 10.4 | 0.00 | 0.00 | 0.00 | 51 | 1012.4 |
| 20260508184036 | 67 | 106 | 1.7 | 8.7 | 0.00 | 0.00 | 0.00 | 49 | 1012.6 |
| 20260508183538 | 66 | 339 | 4.3 | 12.2 | 0.00 | 0.00 | 0.00 | 54 | 1012.5 |
| 20260508183047 | 65 | 88 | 4.3 | 12.2 | 0.00 | 0.00 | 0.00 | 53 | 1012.6 |
| 20260508182535 | 65 | 295 | 2.6 | 7.0 | 0.00 | 0.00 | 0.00 | 55 | 1012.5 |
| 20260508182037 | 65 | 123 | 1.7 | 7.0 | 0.00 | 0.00 | 0.00 | 54 | 1012.8 |
| 20260508181552 | 65 | 69 | 0.9 | 5.2 | 0.00 | 0.00 | 0.00 | 52 | 1012.7 |
| 20260508181035 | 65 | 24 | 1.7 | 7.0 | 0.00 | 0.00 | 0.00 | 54 | 1013.0 |
| 20260508180540 | 65 | 282 | 1.7 | 7.8 | 0.00 | 0.00 | 0.00 | 53 | 1012.9 |
| 20260508180053 | 65 | 29 | 1.7 | 7.8 | 0.00 | 0.00 | 0.00 | 52 | 1013.1 |
| 20260508175537 | 65 | 27 | 2.6 | 7.8 | 0.00 | 0.00 | 0.00 | 53 | 1013.0 |
| 20260508175038 | 65 | 223 | 2.6 | 8.7 | 0.00 | 0.00 | 0.00 | 51 | 1013.1 |
| 20260508174553 | 66 | 291 | 3.5 | 8.7 | 0.00 | 0.00 | 0.00 | 49 | 1013.1 |
| 20260508174037 | 67 | 42 | 2.6 | 10.4 | 0.00 | 0.00 | 0.00 | 49 | 1013.2 |
| 20260508173538 | 66 | 32 | 2.6 | 10.4 | 0.00 | 0.00 | 0.00 | 51 | 1013.3 |
| 20260508173052 | 67 | 349 | 3.5 | 10.4 | 0.00 | 0.00 | 0.00 | 51 | 1013.4 |
| 20260508172534 | 67 | 48 | 3.5 | 10.4 | 0.00 | 0.00 | 0.00 | 54 | 1013.4 |
| 20260508172037 | 66 | 85 | 4.3 | 10.4 | 0.00 | 0.00 | 0.00 | 54 | 1013.5 |
| 20260508171555 | 65 | 257 | 3.5 | 10.4 | 0.00 | 0.00 | 0.00 | 53 | 1013.6 |
| 20260508171037 | 65 | 321 | 4.3 | 11.3 | 0.00 | 0.00 | 0.00 | 51 | 1013.9 |
| 20260508170540 | 65 | 68 | 3.5 | 11.3 | 0.00 | 0.00 | 0.00 | 54 | 1013.9 |
| 20260508170054 | 65 | 46 | 2.6 | 7.0 | 0.00 | 0.00 | 0.00 | 55 | 1013.9 |
| 20260508165539 | 65 | 331 | 1.7 | 7.0 | 0.00 | 0.00 | 0.00 | 57 | 1014.1 |
| 20260508165038 | 64 | 57 | 2.6 | 6.1 | 0.00 | 0.00 | 0.00 | 54 | 1014.1 |
| 20260508164555 | 65 | 35 | 1.7 | 6.1 | 0.00 | 0.00 | 0.00 | 57 | 1014.2 |
| 20260508164035 | 64 | 10 | 2.6 | 5.2 | 0.00 | 0.00 | 0.00 | 58 | 1014.2 |
| 20260508163533 | 63 | 302 | 0.9 | 7.8 | 0.00 | 0.00 | 0.00 | 56 | 1014.4 |
| 20260508163054 | 62 | 102 | 3.5 | 8.7 | 0.00 | 0.00 | 0.00 | 56 | 1014.4 |
| 20260508162534 | 62 | 20 | 4.3 | 8.7 | 0.00 | 0.00 | 0.00 | 56 | 1014.4 |
| 20260508162038 | 62 | 30 | 3.5 | 8.7 | 0.00 | 0.00 | 0.00 | 59 | 1014.5 |
| 20260508161552 | 62 | 65 | 3.5 | 8.7 | 0.00 | 0.00 | 0.00 | 57 | 1014.7 |
| 20260508161038 | 62 | 98 | 1.7 | 7.8 | 0.00 | 0.00 | 0.00 | 56 | 1014.8 |
| 20260508160534 | 62 | 69 | 2.6 | 8.7 | 0.00 | 0.00 | 0.00 | 56 | 1014.8 |
| 20260508160055 | 62 | 342 | 2.6 | 8.7 | 0.00 | 0.00 | 0.00 | 57 | 1014.7 |
| 20260508155535 | 62 | 341 | 2.6 | 7.8 | 0.00 | 0.00 | 0.00 | 58 | 1014.7 |
| 20260508155033 | 62 | 355 | 2.6 | 7.8 | 0.00 | 0.00 | 0.00 | 57 | 1014.8 |
| 20260508154545 | 62 | 28 | 4.3 | 9.6 | 0.00 | 0.00 | 0.00 | 57 | 1014.7 |
| 20260508154034 | 62 | 339 | 2.6 | 9.6 | 0.00 | 0.00 | 0.00 | 59 | 1014.9 |
| 20260508153537 | 61 | 292 | 4.3 | 9.6 | 0.00 | 0.00 | 0.00 | 59 | 1014.8 |
| 20260508153051 | 60 | 49 | 5.2 | 9.6 | 0.00 | 0.00 | 0.00 | 58 | 1014.8 |
| 20260508152534 | 60 | 51 | 1.7 | 9.6 | 0.00 | 0.00 | 0.00 | 58 | 1014.8 |
| 20260508152034 | 60 | 351 | 4.3 | 9.6 | 0.00 | 0.00 | 0.00 | 57 | 1014.8 |
| 20260508151546 | 60 | 63 | 3.5 | 7.0 | 0.00 | 0.00 | 0.00 | 56 | 1014.9 |
| 20260508151035 | 60 | 55 | 2.6 | 7.0 | 0.00 | 0.00 | 0.00 | 59 | 1015.0 |
| 20260508150534 | 60 | 98 | 1.7 | 7.0 | 0.00 | 0.00 | 0.00 | 58 | 1015.0 |
| 20260508150044 | 59 | 349 | 2.6 | 6.1 | 0.00 | 0.00 | 0.00 | 57 | 1015.0 |
| 20260508145536 | 59 | 14 | 1.7 | 6.1 | 0.00 | 0.00 | 0.00 | 58 | 1015.1 |
| 20260508145034 | 59 | 44 | 1.7 | 9.6 | 0.00 | 0.00 | 0.00 | 61 | 1015.1 |
| 20260508144550 | 59 | 55 | 1.7 | 9.6 | 0.00 | 0.00 | 0.00 | 59 | 1015.1 |
| 20260508144035 | 59 | 79 | 2.6 | 7.8 | 0.00 | 0.00 | 0.00 | 57 | 1015.1 |
| 20260508143535 | 58 | 33 | 1.7 | 9.6 | 0.00 | 0.00 | 0.00 | 59 | 1015.3 |
| 20260508143044 | 59 | 333 | 2.6 | 9.6 | 0.00 | 0.00 | 0.00 | 60 | 1015.3 |
| 20260508142536 | 59 | 51 | 2.6 | 11.3 | 0.00 | 0.00 | 0.00 | 59 | 1015.3 |
| 20260508142037 | 58 | 113 | 1.7 | 11.3 | 0.00 | 0.00 | 0.00 | 58 | 1015.3 |
| 20260508141550 | 57 | 109 | 3.5 | 8.7 | 0.00 | 0.00 | 0.00 | 58 | 1015.4 |
| 20260508141036 | 57 | 324 | 1.7 | 7.0 | 0.00 | 0.00 | 0.00 | 59 | 1015.3 |
| 20260508140538 | 57 | 284 | 1.7 | 7.0 | 0.00 | 0.00 | 0.00 | 59 | 1015.4 |
| 20260508140051 | 57 | 37 | 1.7 | 12.2 | 0.00 | 0.00 | 0.00 | 59 | 1015.5 |
| 20260508135536 | 57 | 351 | 2.6 | 12.2 | 0.00 | 0.00 | 0.00 | 57 | 1015.6 |
| 20260508135036 | 57 | 261 | 0.9 | 7.0 | 0.00 | 0.00 | 0.00 | 61 | 1015.5 |
| 20260508134548 | 56 | 74 | 2.6 | 7.8 | 0.00 | 0.00 | 0.00 | 59 | 1015.6 |
| 20260508134034 | 56 | 35 | 1.7 | 7.8 | 0.00 | 0.00 | 0.00 | 63 | 1015.5 |
| 20260508133538 | 55 | 347 | 3.5 | 7.8 | 0.00 | 0.00 | 0.00 | 61 | 1015.3 |
| 20260508133043 | 55 | 0 | 1.7 | 7.0 | 0.00 | 0.00 | 0.00 | 61 | 1015.3 |
| 20260508132536 | 54 | 67 | 0.9 | 6.1 | 0.00 | 0.00 | 0.00 | 61 | 1015.4 |
| 20260508132036 | 54 | 66 | 1.7 | 6.1 | 0.00 | 0.00 | 0.00 | 61 | 1015.4 |
| 20260508131556 | 54 | 62 | 2.6 | 7.8 | 0.00 | 0.00 | 0.00 | 62 | 1015.3 |
| 20260508131036 | 54 | 74 | 1.7 | 7.8 | 0.00 | 0.00 | 0.00 | 64 | 1015.3 |
| 20260508130537 | 53 | 5 | 2.6 | 7.8 | 0.00 | 0.00 | 0.00 | 63 | 1015.3 |
| 20260508130108 | 53 | 41 | 1.7 | 5.2 | 0.00 | 0.00 | 0.00 | 66 | 1015.3 |
| 20260508125537 | 53 | 116 | 1.7 | 4.3 | 0.00 | 0.00 | 0.00 | 65 | 1015.4 |
| 20260508125036 | 52 | 44 | 0.9 | 4.3 | 0.00 | 0.00 | 0.00 | 69 | 1015.4 |
| 20260508124552 | 51 | 316 | 0.9 | 3.5 | 0.00 | 0.00 | 0.00 | 71 | 1015.3 |
| 20260508124037 | 50 | 23 | 0.9 | 4.3 | 0.00 | 0.00 | 0.00 | 72 | 1015.3 |
| 20260508123539 | 50 | 42 | 1.7 | 4.3 | 0.00 | 0.00 | 0.00 | 74 | 1015.2 |
| 20260508123047 | 49 | 28 | 1.7 | 4.3 | 0.00 | 0.00 | 0.00 | 76 | 1015.3 |
| 20260508122538 | 48 | 20 | 0.0 | 2.6 | 0.00 | 0.00 | 0.00 | 78 | 1015.3 |
| 20260508122036 | 48 | 0 | 0.0 | 3.5 | 0.00 | 0.00 | 0.00 | 77 | 1015.4 |
| 20260508121555 | 47 | 0 | 0.0 | 3.5 | 0.00 | 0.00 | 0.00 | 78 | 1015.4 |
| 20260508121034 | 47 | 33 | 1.7 | 3.5 | 0.00 | 0.00 | 0.00 | 77 | 1015.3 |
| 20260508120533 | 47 | 24 | 1.7 | 3.5 | 0.00 | 0.00 | 0.00 | 79 | 1015.3 |
| 20260508120046 | 46 | 38 | 0.9 | 2.6 | 0.00 | 0.00 | 0.00 | 81 | 1015.2 |
| 20260508115533 | 45 | 29 | 0.9 | 2.6 | 0.00 | 0.00 | 0.00 | 80 | 1015.1 |
| 20260508115037 | 45 | 9 | 0.0 | 2.6 | 0.00 | 0.00 | 0.00 | 81 | 1015.1 |
| 20260508114549 | 44 | 9 | 0.0 | 2.6 | 0.00 | 0.00 | 0.00 | 81 | 1015.1 |
| 20260508114039 | 44 | 341 | 0.0 | 1.7 | 0.00 | 0.00 | 0.00 | 82 | 1015.0 |
| 20260508113537 | 44 | 38 | 0.0 | 1.7 | 0.00 | 0.00 | 0.00 | 82 | 1015.0 |
| 20260508113053 | 43 | 27 | 0.0 | 1.7 | 0.00 | 0.00 | 0.00 | 82 | 1014.9 |
| 20260508112536 | 43 | 24 | 0.0 | 1.7 | 0.00 | 0.00 | 0.00 | 82 | 1015.0 |
| 20260508112036 | 43 | 34 | 0.0 | 0.9 | 0.00 | 0.00 | 0.00 | 83 | 1015.0 |
| 20260508111554 | 42 | 33 | 0.0 | 0.9 | 0.00 | 0.00 | 0.00 | 83 | 1014.9 |
| 20260508111037 | 42 | 33 | 0.0 | 0.9 | 0.00 | 0.00 | 0.00 | 83 | 1014.8 |
| 20260508110536 | 42 | 33 | 0.0 | 0.9 | 0.00 | 0.00 | 0.00 | 83 | 1014.9 |
| 20260508110049 | 42 | 0 | 0.0 | 0.9 | 0.00 | 0.00 | 0.00 | 83 | 1014.7 |
| 20260508105538 | 42 | 34 | 0.0 | 0.9 | 0.00 | 0.00 | 0.00 | 83 | 1014.8 |
| 20260508105041 | 42 | 0 | 0.0 | 0.9 | 0.00 | 0.00 | 0.00 | 83 | 1014.8 |
| 20260508104617 | 42 | 0 | 0.0 | 0.9 | 0.00 | 0.00 | 0.00 | 83 | 1014.8 |
| 20260508104033 | 42 | 34 | 0.0 | 0.9 | 0.00 | 0.00 | 0.00 | 83 | 1014.7 |
| 20260508103533 | 42 | 30 | 0.0 | 0.9 | 0.00 | 0.00 | 0.00 | 82 | 1014.8 |
| 20260508103051 | 42 | 0 | 0.0 | 0.9 | 0.00 | 0.00 | 0.00 | 83 | 1014.7 |
| 20260508102536 | 42 | 0 | 0.0 | 0.9 | 0.00 | 0.00 | 0.00 | 83 | 1014.7 |
| 20260508102038 | 42 | 0 | 0.0 | 0.9 | 0.00 | 0.00 | 0.00 | 82 | 1014.6 |
| 20260508101550 | 42 | 0 | 0.0 | 0.9 | 0.00 | 0.00 | 0.00 | 82 | 1014.6 |
| 20260508101036 | 42 | 0 | 0.0 | 0.9 | 0.00 | 0.00 | 0.00 | 82 | 1014.8 |
| 20260508100535 | 42 | 0 | 0.0 | 0.9 | 0.00 | 0.00 | 0.00 | 82 | 1014.6 |
| 20260508100049 | 42 | 0 | 0.0 | 0.9 | 0.00 | 0.00 | 0.00 | 82 | 1014.7 |
| 20260508095537 | 42 | 0 | 0.0 | 0.9 | 0.00 | 0.00 | 0.00 | 82 | 1014.6 |
| 20260508095037 | 42 | 30 | 0.0 | 0.9 | 0.00 | 0.00 | 0.00 | 82 | 1014.6 |
| 20260508094547 | 42 | 31 | 0.0 | 1.7 | 0.00 | 0.00 | 0.00 | 82 | 1014.9 |
| 20260508094036 | 42 | 29 | 0.0 | 1.7 | 0.00 | 0.00 | 0.00 | 82 | 1014.8 |
| 20260508093537 | 42 | 29 | 0.0 | 1.7 | 0.00 | 0.00 | 0.00 | 82 | 1014.9 |
| 20260508093051 | 41 | 0 | 0.0 | 0.9 | 0.00 | 0.00 | 0.00 | 83 | 1014.8 |
| 20260508092536 | 41 | 34 | 0.0 | 0.9 | 0.00 | 0.00 | 0.00 | 82 | 1014.6 |
| 20260508092037 | 42 | 0 | 0.0 | 0.0 | 0.00 | 0.00 | 0.00 | 82 | 1014.5 |
| 20260508091544 | 42 | 0 | 0.0 | 0.0 | 0.00 | 0.00 | 0.00 | 82 | 1014.7 |
| 20260508091036 | 42 | 0 | 0.0 | 0.0 | 0.00 | 0.00 | 0.00 | 82 | 1014.8 |
| 20260508090533 | 42 | 0 | 0.0 | 0.0 | 0.00 | 0.00 | 0.00 | 81 | 1014.8 |
| 20260508090105 | 42 | 0 | 0.0 | 0.0 | 0.00 | 0.00 | 0.00 | 81 | 1014.8 |
| 20260508085536 | 42 | 0 | 0.0 | 0.0 | 0.00 | 0.00 | 0.00 | 81 | 1014.7 |
| 20260508085034 | 42 | 0 | 0.0 | 0.0 | 0.00 | 0.00 | 0.00 | 80 | 1014.6 |
| 20260508084549 | 42 | 0 | 0.0 | 0.9 | 0.00 | 0.00 | 0.00 | 80 | 1014.8 |
| 20260508084037 | 42 | 0 | 0.0 | 0.9 | 0.00 | 0.00 | 0.00 | 80 | 1014.7 |
| 20260508083534 | 42 | 0 | 0.0 | 0.0 | 0.00 | 0.00 | 0.00 | 80 | 1014.8 |
| 20260508083103 | 42 | 34 | 0.0 | 0.0 | 0.00 | 0.00 | 0.00 | 80 | 1014.8 |
| 20260508082536 | 42 | 0 | 0.0 | 0.0 | 0.00 | 0.00 | 0.00 | 81 | 1014.7 |
| 20260508082036 | 42 | 0 | 0.0 | 0.0 | 0.00 | 0.00 | 0.00 | 80 | 1014.6 |
| 20260508081555 | 43 | 0 | 0.0 | 0.0 | 0.00 | 0.00 | 0.00 | 79 | 1014.7 |
| 20260508081036 | 43 | 0 | 0.0 | 0.0 | 0.00 | 0.00 | 0.00 | 77 | 1014.7 |
| 20260508080536 | 44 | 0 | 0.0 | 0.0 | 0.00 | 0.00 | 0.00 | 76 | 1014.7 |
| 20260508080048 | 44 | 0 | 0.0 | 0.0 | 0.00 | 0.00 | 0.00 | 75 | 1014.5 |
| 20260508075536 | 44 | 0 | 0.0 | 0.0 | 0.00 | 0.00 | 0.00 | 75 | 1014.6 |
| 20260508075036 | 45 | 0 | 0.0 | 0.0 | 0.00 | 0.00 | 0.00 | 76 | 1014.5 |
| 20260508074547 | 45 | 0 | 0.0 | 0.9 | 0.00 | 0.00 | 0.00 | 75 | 1014.6 |
| 20260508074036 | 46 | 0 | 0.0 | 0.9 | 0.00 | 0.00 | 0.00 | 71 | 1014.8 |
| 20260508073536 | 46 | 0 | 0.0 | 0.9 | 0.00 | 0.00 | 0.00 | 70 | 1014.7 |
| 20260508073047 | 46 | 0 | 0.0 | 0.9 | 0.00 | 0.00 | 0.00 | 71 | 1014.6 |
| 20260508072536 | 46 | 32 | 0.0 | 0.9 | 0.00 | 0.00 | 0.00 | 70 | 1014.6 |
| 20260508072036 | 46 | 0 | 0.0 | 0.9 | 0.00 | 0.00 | 0.00 | 70 | 1014.8 |
| 20260508071554 | 46 | 0 | 0.0 | 2.6 | 0.00 | 0.00 | 0.00 | 70 | 1014.7 |
| 20260508071036 | 46 | 32 | 0.0 | 2.6 | 0.00 | 0.00 | 0.00 | 69 | 1014.8 |
| 20260508070538 | 46 | 9 | 0.0 | 1.7 | 0.00 | 0.00 | 0.00 | 69 | 1014.8 |
| 20260508070134 | 47 | 30 | 0.0 | 3.5 | 0.00 | 0.00 | 0.00 | 69 | 1014.8 |
| 20260508065536 | 47 | 29 | 0.9 | 3.5 | 0.00 | 0.00 | 0.00 | 69 | 1015.0 |
| 20260508065038 | 47 | 47 | 1.7 | 3.5 | 0.00 | 0.00 | 0.00 | 68 | 1015.0 |
| 20260508064602 | 47 | 40 | 1.7 | 3.5 | 0.00 | 0.00 | 0.00 | 69 | 1015.1 |
| 20260508064036 | 47 | 351 | 1.7 | 3.5 | 0.00 | 0.00 | 0.00 | 68 | 1015.0 |
| 20260508063537 | 47 | 0 | 1.7 | 4.3 | 0.00 | 0.00 | 0.00 | 69 | 1015.1 |
| 20260508063046 | 47 | 41 | 1.7 | 4.3 | 0.00 | 0.00 | 0.00 | 69 | 1015.0 |
| 20260508062536 | 47 | 49 | 2.6 | 4.3 | 0.00 | 0.00 | 0.00 | 69 | 1015.1 |
| 20260508062034 | 47 | 18 | 2.6 | 4.3 | 0.00 | 0.00 | 0.00 | 69 | 1015.1 |
| 20260508061549 | 47 | 26 | 1.7 | 4.3 | 0.00 | 0.00 | 0.00 | 68 | 1015.1 |
| 20260508061035 | 47 | 27 | 1.7 | 4.3 | 0.00 | 0.00 | 0.00 | 68 | 1015.1 |
| 20260508060535 | 48 | 338 | 2.6 | 5.2 | 0.00 | 0.00 | 0.00 | 68 | 1015.1 |
| 20260508060045 | 48 | 42 | 2.6 | 5.2 | 0.00 | 0.00 | 0.00 | 68 | 1015.0 |
| 20260508055535 | 48 | 38 | 2.6 | 5.2 | 0.00 | 0.00 | 0.00 | 68 | 1015.0 |
| 20260508055037 | 48 | 28 | 2.6 | 4.3 | 0.00 | 0.00 | 0.00 | 68 | 1015.1 |
| 20260508054550 | 48 | 28 | 2.6 | 5.2 | 0.00 | 0.00 | 0.00 | 68 | 1015.1 |
| 20260508054036 | 48 | 349 | 2.6 | 5.2 | 0.00 | 0.00 | 0.00 | 69 | 1015.1 |
| 20260508053536 | 48 | 29 | 2.6 | 5.2 | 0.00 | 0.00 | 0.00 | 69 | 1015.1 |
| 20260508053101 | 48 | 323 | 2.6 | 5.2 | 0.00 | 0.00 | 0.00 | 69 | 1015.2 |
| 20260508052538 | 48 | 32 | 2.6 | 5.2 | 0.00 | 0.00 | 0.00 | 70 | 1015.2 |
| 20260508052035 | 48 | 28 | 2.6 | 4.3 | 0.00 | 0.00 | 0.00 | 72 | 1015.2 |
| 20260508051551 | 48 | 18 | 0.9 | 3.5 | 0.00 | 0.00 | 0.00 | 72 | 1015.3 |
| 20260508051035 | 47 | 14 | 0.9 | 2.6 | 0.00 | 0.00 | 0.00 | 73 | 1015.3 |
| 20260508050535 | 47 | 38 | 0.0 | 1.7 | 0.00 | 0.00 | 0.00 | 75 | 1015.2 |
| 20260508050047 | 48 | 15 | 0.0 | 2.6 | 0.00 | 0.00 | 0.00 | 74 | 1015.3 |
| 20260508045536 | 48 | 13 | 0.9 | 2.6 | 0.00 | 0.00 | 0.00 | 72 | 1015.2 |
| 20260508045036 | 47 | 21 | 0.9 | 2.6 | 0.00 | 0.00 | 0.00 | 74 | 1015.3 |
| 20260508044546 | 47 | 29 | 0.9 | 1.7 | 0.00 | 0.00 | 0.00 | 75 | 1015.2 |
| 20260508044036 | 47 | 348 | 0.0 | 0.9 | 0.00 | 0.00 | 0.00 | 73 | 1015.2 |
| 20260508043537 | 47 | 348 | 0.0 | 0.9 | 0.00 | 0.00 | 0.00 | 73 | 1015.1 |
| 20260508043058 | 47 | 0 | 0.0 | 0.9 | 0.00 | 0.00 | 0.00 | 73 | 1015.2 |
| 20260508042536 | 47 | 0 | 0.0 | 0.9 | 0.00 | 0.00 | 0.00 | 73 | 1015.2 |
| 20260508042036 | 47 | 0 | 0.0 | 0.0 | 0.00 | 0.00 | 0.00 | 73 | 1015.2 |
| 20260508041547 | 47 | 0 | 0.0 | 0.0 | 0.00 | 0.00 | 0.00 | 72 | 1015.3 |
| 20260508041033 | 47 | 0 | 0.0 | 0.0 | 0.00 | 0.00 | 0.00 | 72 | 1015.2 |
| 20260508040536 | 47 | 0 | 0.0 | 0.9 | 0.00 | 0.00 | 0.00 | 72 | 1015.2 |
| 20260508040050 | 47 | 0 | 0.0 | 0.9 | 0.00 | 0.00 | 0.00 | 71 | 1015.2 |
| 20260508035534 | 47 | 0 | 0.0 | 0.9 | 0.00 | 0.00 | 0.00 | 71 | 1015.2 |
| 20260508035035 | 47 | 0 | 0.0 | 0.9 | 0.00 | 0.00 | 0.00 | 72 | 1015.1 |
| 20260508034547 | 47 | 0 | 0.0 | 0.9 | 0.00 | 0.00 | 0.00 | 72 | 1015.2 |
| 20260508034034 | 47 | 0 | 0.0 | 0.9 | 0.00 | 0.00 | 0.00 | 72 | 1015.3 |
| 20260508033534 | 47 | 0 | 0.0 | 0.9 | 0.00 | 0.00 | 0.00 | 73 | 1015.3 |
| 20260508033050 | 47 | 0 | 0.0 | 0.9 | 0.00 | 0.00 | 0.00 | 73 | 1015.2 |
| 20260508032535 | 47 | 0 | 0.0 | 0.0 | 0.00 | 0.00 | 0.00 | 73 | 1015.2 |
| 20260508032035 | 47 | 0 | 0.0 | 0.0 | 0.00 | 0.00 | 0.00 | 75 | 1015.3 |
| 20260508031554 | 47 | 0 | 0.0 | 0.0 | 0.00 | 0.00 | 0.00 | 73 | 1015.2 |
| 20260508031037 | 47 | 0 | 0.0 | 0.0 | 0.00 | 0.00 | 0.00 | 73 | 1015.1 |
| 20260508030534 | 47 | 0 | 0.0 | 0.0 | 0.00 | 0.00 | 0.00 | 73 | 1015.1 |
| 20260508030056 | 47 | 0 | 0.0 | 0.0 | 0.00 | 0.00 | 0.00 | 74 | 1015.2 |
| 20260508025535 | 47 | 0 | 0.0 | 0.0 | 0.00 | 0.00 | 0.00 | 73 | 1015.1 |
| 20260508025036 | 46 | 0 | 0.0 | 0.9 | 0.00 | 0.00 | 0.00 | 74 | 1015.1 |
| 20260508024554 | 46 | 0 | 0.0 | 0.9 | 0.00 | 0.00 | 0.00 | 74 | 1015.2 |
| 20260508024036 | 46 | 0 | 0.0 | 0.9 | 0.00 | 0.00 | 0.00 | 73 | 1015.2 |
| 20260508023536 | 46 | 0 | 0.0 | 0.0 | 0.00 | 0.00 | 0.00 | 74 | 1015.1 |
| 20260508023046 | 46 | 0 | 0.0 | 0.0 | 0.00 | 0.00 | 0.00 | 72 | 1015.1 |
| 20260508022534 | 47 | 0 | 0.0 | 0.0 | 0.00 | 0.00 | 0.00 | 71 | 1015.2 |
| 20260508022035 | 47 | 0 | 0.0 | 0.0 | 0.00 | 0.00 | 0.00 | 70 | 1015.2 |
| 20260508021547 | 47 | 0 | 0.0 | 0.0 | 0.00 | 0.00 | 0.00 | 70 | 1015.2 |
| 20260508021034 | 47 | 0 | 0.0 | 0.0 | 0.00 | 0.00 | 0.00 | 69 | 1015.1 |
| 20260508020534 | 48 | 0 | 0.0 | 0.0 | 0.00 | 0.00 | 0.00 | 69 | 1015.2 |
| 20260508020048 | 48 | 0 | 0.0 | 0.0 | 0.00 | 0.00 | 0.00 | 68 | 1015.1 |
| 20260508015534 | 48 | 0 | 0.0 | 0.0 | 0.00 | 0.00 | 0.00 | 67 | 1015.2 |
| 20260508015036 | 48 | 0 | 0.0 | 0.0 | 0.00 | 0.00 | 0.00 | 67 | 1015.4 |
| 20260508014544 | 48 | 0 | 0.0 | 0.0 | 0.00 | 0.00 | 0.00 | 69 | 1015.3 |
| 20260508014037 | 47 | 0 | 0.0 | 0.0 | 0.00 | 0.00 | 0.00 | 68 | 1015.3 |
| 20260508013536 | 47 | 0 | 0.0 | 0.0 | 0.00 | 0.00 | 0.00 | 68 | 1015.2 |
| 20260508013044 | 47 | 0 | 0.0 | 0.0 | 0.00 | 0.00 | 0.00 | 69 | 1015.1 |
| 20260508012536 | 47 | 0 | 0.0 | 0.0 | 0.00 | 0.00 | 0.00 | 69 | 1015.2 |
| 20260508012035 | 48 | 0 | 0.0 | 0.0 | 0.00 | 0.00 | 0.00 | 71 | 1015.0 |
| 20260508011549 | 48 | 0 | 0.0 | 0.0 | 0.00 | 0.00 | 0.00 | 71 | 1015.1 |
| 20260508011035 | 48 | 0 | 0.0 | 0.0 | 0.00 | 0.00 | 0.00 | 69 | 1015.2 |
| 20260508010535 | 48 | 0 | 0.0 | 0.9 | 0.00 | 0.00 | 0.00 | 68 | 1015.2 |
| 20260508010048 | 49 | 0 | 0.0 | 0.9 | 0.00 | 0.00 | 0.00 | 66 | 1015.1 |
| 20260508005534 | 49 | 348 | 0.0 | 0.9 | 0.00 | 0.00 | 0.00 | 68 | 1015.1 |
| 20260508005039 | 50 | 0 | 0.0 | 0.0 | 0.00 | 0.00 | 0.00 | 64 | 1015.1 |
| 20260508004555 | 50 | 0 | 0.0 | 0.0 | 0.00 | 0.00 | 0.00 | 61 | 1015.0 |
| 20260508004036 | 51 | 0 | 0.0 | 0.0 | 0.00 | 0.00 | 0.00 | 61 | 1015.0 |
| 20260508003534 | 51 | 0 | 0.0 | 0.0 | 0.00 | 0.00 | 0.00 | 62 | 1015.1 |
| 20260508003047 | 52 | 0 | 0.0 | 0.0 | 0.00 | 0.00 | 0.00 | 60 | 1015.0 |
| 20260508002535 | 52 | 0 | 0.0 | 0.0 | 0.00 | 0.00 | 0.00 | 58 | 1014.9 |
| 20260508002035 | 53 | 0 | 0.0 | 0.0 | 0.00 | 0.00 | 0.00 | 57 | 1015.0 |
| 20260508001548 | 53 | 0 | 0.0 | 0.0 | 0.00 | 0.00 | 0.00 | 55 | 1014.8 |
| 20260508001036 | 54 | 0 | 0.0 | 0.0 | 0.00 | 0.00 | 0.00 | 54 | 1014.7 |
| 20260508000537 | 54 | 0 | 0.0 | 0.0 | 0.00 | 0.00 | 0.00 | 53 | 1014.7 |
| 20260508000043 | 54 | 0 | 0.0 | 0.0 | 0.00 | 0.00 | 0.00 | 52 | 1014.7 |
| 20260507235536 | 55 | 0 | 0.0 | 0.0 | 0.00 | 0.00 | 0.00 | 54 | 1014.7 |
| 20260507235036 | 55 | 0 | 0.0 | 1.7 | 0.00 | 0.00 | 0.00 | 51 | 1014.7 |
| 20260507234550 | 55 | 348 | 0.0 | 1.7 | 0.00 | 0.00 | 0.00 | 51 | 1014.7 |
| 20260507234037 | 56 | 271 | 0.0 | 0.9 | 0.00 | 0.00 | 0.00 | 48 | 1014.6 |
| 20260507233536 | 56 | 100 | 0.0 | 3.5 | 0.00 | 0.00 | 0.00 | 47 | 1014.6 |
| 20260507233048 | 56 | 331 | 0.0 | 3.5 | 0.00 | 0.00 | 0.00 | 47 | 1014.7 |
| 20260507232535 | 57 | 0 | 0.0 | 2.6 | 0.00 | 0.00 | 0.00 | 49 | 1014.7 |
| 20260507232036 | 57 | 0 | 0.0 | 1.7 | 0.00 | 0.00 | 0.00 | 48 | 1014.8 |
| 20260507231548 | 57 | 0 | 0.0 | 4.3 | 0.00 | 0.00 | 0.00 | 46 | 1014.8 |
| 20260507231035 | 57 | 0 | 0.0 | 4.3 | 0.00 | 0.00 | 0.00 | 46 | 1014.7 |
| 20260507230538 | 57 | 59 | 0.9 | 3.5 | 0.00 | 0.00 | 0.00 | 45 | 1014.7 |
| 20260507230051 | 58 | 0 | 0.0 | 7.0 | 0.00 | 0.00 | 0.00 | 47 | 1014.7 |
| 20260507225535 | 58 | 50 | 1.7 | 7.0 | 0.00 | 0.00 | 0.00 | 45 | 1014.7 |
| 20260507225035 | 58 | 0 | 0.0 | 1.7 | 0.00 | 0.00 | 0.00 | 43 | 1014.6 |
| 20260507224547 | 58 | 260 | 0.0 | 1.7 | 0.00 | 0.00 | 0.00 | 43 | 1014.6 |
| 20260507224035 | 59 | 0 | 0.0 | 3.5 | 0.00 | 0.00 | 0.00 | 43 | 1014.6 |
| 20260507223538 | 59 | 270 | 0.9 | 10.4 | 0.00 | 0.00 | 0.00 | 42 | 1014.6 |
| 20260507223043 | 59 | 30 | 2.6 | 10.4 | 0.00 | 0.00 | 0.00 | 41 | 1014.7 |
| 20260507222539 | 59 | 70 | 1.7 | 6.1 | 0.00 | 0.00 | 0.00 | 42 | 1014.7 |
| 20260507222036 | 60 | 279 | 0.0 | 4.3 | 0.00 | 0.00 | 0.00 | 43 | 1014.9 |
| 20260507221547 | 59 | 45 | 0.0 | 4.3 | 0.00 | 0.00 | 0.00 | 44 | 1014.8 |
| 20260507221035 | 59 | 297 | 0.9 | 3.5 | 0.00 | 0.00 | 0.00 | 45 | 1015.0 |
| 20260507220535 | 59 | 55 | 0.9 | 6.1 | 0.00 | 0.00 | 0.00 | 44 | 1015.0 |
| 20260507220048 | 59 | 263 | 0.9 | 6.1 | 0.00 | 0.00 | 0.00 | 44 | 1015.1 |
| 20260507215537 | 59 | 246 | 1.7 | 6.1 | 0.00 | 0.00 | 0.00 | 44 | 1015.0 |
| 20260507215036 | 59 | 256 | 0.0 | 4.3 | 0.00 | 0.00 | 0.00 | 45 | 1015.0 |
| 20260507214551 | 58 | 0 | 0.9 | 2.6 | 0.00 | 0.00 | 0.00 | 47 | 1015.0 |
| 20260507214036 | 58 | 281 | 0.0 | 7.0 | 0.00 | 0.00 | 0.00 | 46 | 1015.1 |
| 20260507213533 | 59 | 29 | 0.9 | 7.0 | 0.00 | 0.00 | 0.00 | 44 | 1015.2 |
| 20260507213100 | 59 | 340 | 0.9 | 7.0 | 0.00 | 0.00 | 0.00 | 45 | 1015.1 |
| 20260507212536 | 59 | 272 | 1.7 | 7.0 | 0.00 | 0.00 | 0.00 | 44 | 1015.1 |
| 20260507212036 | 60 | 69 | 0.9 | 10.4 | 0.00 | 0.00 | 0.00 | 42 | 1015.1 |
| 20260507211545 | 60 | 0 | 1.7 | 10.4 | 0.00 | 0.00 | 0.00 | 43 | 1015.0 |
| 20260507211032 | 60 | 74 | 1.7 | 7.0 | 0.00 | 0.00 | 0.00 | 44 | 1014.9 |
| 20260507210533 | 59 | 57 | 1.7 | 7.8 | 0.00 | 0.00 | 0.00 | 45 | 1014.7 |
| 20260507210050 | 60 | 262 | 2.6 | 7.8 | 0.00 | 0.00 | 0.00 | 43 | 1014.9 |
| 20260507205536 | 59 | 87 | 1.7 | 8.7 | 0.00 | 0.00 | 0.00 | 44 | 1014.8 |
| 20260507205035 | 59 | 82 | 1.7 | 8.7 | 0.00 | 0.00 | 0.00 | 44 | 1014.8 |
| 20260507204554 | 59 | 259 | 1.7 | 8.7 | 0.00 | 0.00 | 0.00 | 44 | 1014.9 |
| 20260507204037 | 58 | 283 | 1.7 | 5.2 | 0.00 | 0.00 | 0.00 | 46 | 1014.8 |
| 20260507203533 | 58 | 269 | 1.7 | 7.0 | 0.00 | 0.00 | 0.00 | 45 | 1014.8 |
| 20260507203047 | 58 | 240 | 0.9 | 7.0 | 0.00 | 0.00 | 0.00 | 43 | 1014.9 |
| 20260507202536 | 59 | 267 | 1.7 | 7.0 | 0.00 | 0.00 | 0.00 | 42 | 1014.8 |
| 20260507202032 | 60 | 271 | 0.9 | 8.7 | 0.00 | 0.00 | 0.00 | 42 | 1014.8 |
| 20260507201555 | 59 | 115 | 1.7 | 8.7 | 0.00 | 0.00 | 0.00 | 45 | 1014.8 |
| 20260507201033 | 59 | 84 | 1.7 | 9.6 | 0.00 | 0.00 | 0.00 | 46 | 1014.8 |